Tracking 35274 objects as of 11-Sep-2026
HD Live streaming from Space Station
objects crossing your sky now

OBJECT L


OBJECT L is no longer on orbit


NORAD ID: 56856
Int'l Code: 2023-081L
Launch date: June 7, 2023
Source: (TBD)
Launch site: Jiuquan Satellite Launch Center, China (JSC)
Decay date: 2025-09-06
Your satellite tracking list
Your tracking list is empty




NASA's NSSDC Master Catalog

Two Line Element Set (TLE):
1 56856U 23081L   25249.72267904  .18357823  25143-5  32851-3 0  9992
2 56856  97.2981 333.8676 0017366 262.2846  97.6485 16.46283875126106
Source of the keplerian elements: AFSPC